Regional Weather Roundup
Issued by NWS

Home | Current Version | Previous Version | Graphics & Text | Print | Product List | Glossary On
Versions: 1 2 3 4 5 6 7 8 9 10 11 12 13 14 15 16 17 18 19 20 21 22 23 24 25 26 27 28 29 30 31 32 33 34 35 36 37 38 39 40 41 42 43 44 45 46 47 48 49 50
000
ASUS43 KMKX 311821
RWRWI

WISCONSIN REGIONAL WEATHER ROUNDUP
NATIONAL WEATHER SERVICE MILWAUKEE/SULLIVAN WI
100 PM CDT TUE MAY 31 2016

NOTE: "FAIR" INDICATES FEW OR NO CLOUDS BELOW 12,000 FEET WITH NO
SIGNIFICANT WEATHER AND/OR OBSTRUCTIONS TO VISIBILITY.

WIZ001-002-006>008-014>016-023>028-311900-
NORTHWEST WISCONSIN

CITY           SKY/WX    TMP DP  RH WIND       PRES   REMARKS
SUPERIOR ARPT  CLOUDY    41  41  97 E14G24    29.95S
6HR MIN TEMP:  41; 6HR MAX TEMP:  44; 6HR PCP:  0.03;

ASHLAND        CLOUDY    52  48  86 N12       29.93F
6HR MIN TEMP:  49; 6HR MAX TEMP:  54; 6HR PCP:  0.01;

HAYWARD        LGT RAIN  67  59  75 S9G20     29.90F
6HR MIN TEMP:  59; 6HR MAX TEMP:  68; 6HR PCP:  0.06;

SIREN          DRIZZLE   68  60  74 S10G17    29.88S
6HR MIN TEMP:  56; 6HR MAX TEMP:  69; 6HR PCP:  0.06;

CUMBERLAND     CLOUDY    64  61  88 S6        29.90F
RICE LAKE      CLOUDY    68  62  80 CALM      29.91S
6HR MIN TEMP:  61; 6HR MAX TEMP:  68; 6HR PCP:  0.16;

CHETEK         CLOUDY    70  63  78 CALM      29.90S
6HR MIN TEMP:  62; 6HR MAX TEMP:  70; 6HR PCP:  0.12;

LADYSMITH      PTSUNNY   74  60  61 SE12G18   29.93F
6HR MIN TEMP:  62; 6HR MAX TEMP:  74;

EAU CLAIRE     CLOUDY    76  60  57 S15       29.88F
6HR MIN TEMP:  64; 6HR MAX TEMP:  77;

MENOMONIE      CLOUDY    72  71  95 S8        29.89S
6HR MIN TEMP:  64; 6HR MAX TEMP:  73; 6HR PCP:  0.17;

NEW RICHMOND   CLOUDY    68  60  75 SW12G17   29.90S
6HR MIN TEMP:  61; 6HR MAX TEMP:  69; 6HR PCP:  0.12;

OSCEOLA        PTSUNNY   70  62  76 S13       29.91S
6HR MIN TEMP:  63; 6HR MAX TEMP:  70; 6HR PCP:  0.08;

$$

WIZ003>005-009-010-017-018-311900-
NORTH CENTRAL WISCONSIN

CITY           SKY/WX    TMP DP  RH WIND       PRES   REMARKS
MANITOWISH WTR NOT AVBL
ARBOR VITAE    MOSUNNY   72  55  55 S14G20    29.99S
6HR MIN TEMP:  55; 6HR MAX TEMP:  72;

WOODRUFF       MOSUNNY   72  55  55 S14G20    29.99S
6HR MIN TEMP:  55; 6HR MAX TEMP:  72;

RHINELANDER    SUNNY     70  52  52 SE13G25   30.00F
6HR MIN TEMP:  51; 6HR MAX TEMP:  71; 6HR PCP: TRACE;

EAGLE RIVER      N/A     68  49  50 SE9G20    30.01S
LAND O LAKES   CLOUDY    67  49  52 SE10      30.02F
6HR MIN TEMP:  51; 6HR MAX TEMP:  67;

PHILLIPS       CLOUDY    72  58  60 S16       29.94F
6HR MIN TEMP:  56; 6HR MAX TEMP:  70; 6HR PCP:  0.01;

TOMAHAWK       SUNNY     71  55  56 SE9       29.99F
6HR MIN TEMP:  55; 6HR MAX TEMP:  71;

MEDFORD        PTSUNNY   70  59  67 SE10G20   29.96S
6HR MIN TEMP:  57; 6HR MAX TEMP:  71;

MERRILL        SUNNY     71  55  57 SE14G21   30.00S
$$

WIZ029-030-035-036-043>047-311900-
CENTRAL WISCONSIN

CITY           SKY/WX    TMP DP  RH WIND       PRES   REMARKS
WAUSAU         SUNNY     73  55  53 SE16G23   29.97F
6HR MIN TEMP:  57; 6HR MAX TEMP:  74;

MOSINEE        SUNNY     72  55  56 SE12G18   30.00S
MARSHFIELD     PTSUNNY   75  59  57 SE16      29.96R
6HR MIN TEMP:  62; 6HR MAX TEMP:  77;

STEVENS POINT  MOSUNNY   71  56  58 E14G20    30.00R
6HR MIN TEMP:  56; 6HR MAX TEMP:  72;

WAUPACA        MOSUNNY   75  57  52 E13       30.01R
6HR MIN TEMP:  59; 6HR MAX TEMP:  75;

WAUTOMA        MOSUNNY  N/A N/A N/A E7        29.99R
WISC RAPIDS    PTSUNNY   73  58  59 SE13      29.98R
6HR MIN TEMP:  61; 6HR MAX TEMP:  79; 6HR PCP: TRACE;

CAMP DOUGLAS   MOSUNNY   75  68  78 SE10      29.96R
$$

WIZ011>013-019>022-031-037>040-048>050-311900-
NORTHEAST WISCONSIN

CITY           SKY/WX    TMP DP  RH WIND       PRES   REMARKS
ANTIGO         MOSUNNY   68  55  64 SE15      30.02F
6HR MIN TEMP:  49; 6HR MAX TEMP:  68;

SHAWANO        MOSUNNY   69  53  55 E13G18    30.04S
6HR MIN TEMP:  55; 6HR MAX TEMP:  70;

OCONTO         SUNNY     62  47  59 E9G18     30.05F
6HR MIN TEMP:  53; 6HR MAX TEMP:  62;

STURGEON BAY   SUNNY     64  52  63 E9        30.06F
6HR MIN TEMP: -78; 6HR MAX TEMP:  63;

GREEN BAY      SUNNY     68  55  63 NE13      30.03F
6HR MIN TEMP:  57; 6HR MAX TEMP:  68;

MANITOWOC      MOSUNNY   63  52  67 NE7       30.05F
6HR MIN TEMP:  53; 6HR MAX TEMP:  65;

APPLETON       MOSUNNY   72  54  53 E9G16     30.01S
CLINTONVILLE   SUNNY     70  54  56 E10G16    30.02S
OSHKOSH        MOSUNNY   73  57  57 E13       30.00S
6HR MIN TEMP:  60; 6HR MAX TEMP:  73; 6HR PCP: TRACE;

$$

WIZ032>034-041-042-053>061-311900-
SOUTHWEST WISCONSIN

CITY           SKY/WX    TMP DP  RH WIND       PRES   REMARKS
LA CROSSE      CLOUDY    82  62  50 S16G23    29.90F HX  83
6HR MIN TEMP:  65; 6HR MAX TEMP:  82;

SPARTA         CLOUDY    77  62  59 S9        29.94S
6HR MIN TEMP:  63; 6HR MAX TEMP:  79;

VIROQUA        CLOUDY    78  64  61 SE14      29.94F HX  80
6HR MIN TEMP:  62; 6HR MAX TEMP:  77;

BOSCOBEL       NOT AVBL
PRAIRIE DU CHI CLOUDY    80  59  49 S6        29.91F HX  80
6HR MIN TEMP:  62; 6HR MAX TEMP:  80;

PLATTEVILLE    MOSUNNY   68  65  90 SE15      29.98R
6HR MIN TEMP:  65; 6HR MAX TEMP:  73; 6HR PCP:  0.03;

$$

WIZ056-057-062-063-064-067-068-311900-
SOUTH CENTRAL WISCONSIN

CITY           SKY/WX    TMP DP  RH WIND       PRES   REMARKS
REEDSBURG      LGT RAIN  65  64  96 SE5       29.98F
6HR MIN TEMP:  64; 6HR MAX TEMP:  78; 6HR PCP:  0.39;

BARABOO/DELLS  HVY RAIN  66  60  82 S7        30.01R
6HR MIN TEMP:  66; 6HR MAX TEMP:  80; 6HR PCP:  0.05;

LONE ROCK      CLOUDY    68  64  87 SE8       29.98F
6HR MIN TEMP:  66; 6HR MAX TEMP:  79; 6HR PCP:  0.20;

MINERAL POINT  CLOUDY    64  63  94 SE7       29.98F
MADISON        LGT RAIN  67  62  84 SW6       30.01R
6HR MIN TEMP:  66; 6HR MAX TEMP:  78; 6HR PCP:  0.02;

MIDDLETON      CLOUDY    68  64  85 SW6       30.02S
6HR MIN TEMP:  68; 6HR MAX TEMP:  80; 6HR PCP:  0.08;

WATERTOWN      RAIN      69  58  68 SW14      30.03R
6HR MIN TEMP:  64; 6HR MAX TEMP:  78; 6HR PCP:  0.04;

MONROE         RAIN      63  61  94 SE9       30.02F
JANESVILLE     LGT RAIN  66  61  82 S12       30.04R
$$

WIZ051-052-058>065-066-070>072-311900-
SOUTHEAST WISCONSIN

CITY           SKY/WX    TMP DP  RH WIND       PRES   REMARKS
MILWAUKEE      CLOUDY    66  54  65 E10       30.01F
6HR MIN TEMP:  61; 6HR MAX TEMP:  70;

WAUKESHA       MOSUNNY   73  52  46 E12G23    30.01F
MILWAUKEE/TIMM PTSUNNY   70  48  46 E8        30.02F
RACINE         MOSUNNY   71  53  52 E9        30.03F
6HR MIN TEMP:  65; 6HR MAX TEMP:  72;

BURLINGTON     MOSUNNY   77  49  37 SE13      29.99S
6HR MIN TEMP:  64; 6HR MAX TEMP:  78;

KENOSHA        MOSUNNY   74  56  53 E12       30.01F
6HR MIN TEMP:  66; 6HR MAX TEMP:  74;

FOND DU LAC    SUNNY     76  57  51 S9        30.01R
6HR MIN TEMP:  63; 6HR MAX TEMP:  77; 6HR PCP: TRACE;

SHEBOYGAN      SUNNY     64  54  69 E9        30.03F
6HR MIN TEMP:  54; 6HR MAX TEMP:  65; 6HR PCP: TRACE;

WEST BEND      CLOUDY    73  54  49 E12       30.02S
JUNEAU         PTSUNNY   73  55  52 SE14      30.02R
6HR MIN TEMP:  62; 6HR MAX TEMP:  76;

$$

LSZ147-162-311900-
LAKE SUPERIOR

STATION/POSITION TIME  TEMP    WIND        PRES    WAVE
                       AIR SEA DIR/SP/G            HT/PER
                 (UTC) (F)     (DEG/KT/KT) (MB)    (FT/S)
W MID LAKE BUOY  1750   42 38   80/ 19/ 21 1016.2F   4/ 5
DEVILS ISLAND    1800   43      70/ 20/ 23 1015.1F
SAXON HARBOR     1800          140/  1/  9 1012.5F
$$

LMZ867-665-643>646-311900-
LAKE MICHIGAN

STATION/POSITION TIME  TEMP    WIND        PRES    WAVE
                       AIR SEA DIR/SP/G            HT/PER
                 (UTC) (F)     (DEG/KT/KT) (MB)    (FT/S)
CHAMBERS ISLAND  1700   54      10/ 13/ 14 1019.0F
N MID LAKE BUOY  1750   48 48   20/ 10/ 12 1018.2F   1/ 4
NORTHPORT PIER   1700   53      70/ 10/ 13 1019.0F
SISTER BAY       1705   60      70/  7/ 11   N/A
ALGOMA LAKESHORE 1717           70/ 14/ 19   N/A
KEWAUNEE LAKESHO 1800   50      20/ 10/ 15 1017.4F
SHEBOYGAN C1F1C2F2C3F3C4F4C5F5C6F6C7F7C8M1C9M2Ca!



USA.gov is the U.S. government's official web portal to all federal, state and local government web resources and services.